Language selection

My Weather Profile Weather Topics  | 

Dixon Entrance West - east of Langara: Past 24 Hour Conditions

 

Masset Municipal Airport

09:00 PM PDT 20 September 2021
Disclaimer

This table is a summary of hourly weather conditions for the past 24 hours.
Please note that these observations might not always be representative of weather conditions over their associated marine area.

Date / Time
(PDT)
Wind(knots) Conditions Visibility(km) Pressure(kPa) Air tempC) Relative humidity(%) Dew pointC)
20 September 2021
21:00 SSE 8 N/A N/A 100.8 13 100 13
20:00 S 6 N/A N/A 100.7 14 97 13
19:00 S 3 N/A N/A 100.7 14 98 14
18:00 S 4 N/A N/A 100.7 15 100 15
17:00 SSW 3 Light Rainshower 16 100.7 15 100 15
16:00 S 8 Light Rainshower 16 100.6 15 100 15
15:00 SSE 9 Light Rainshower 16 100.6 15 100 15
14:00 S 7 Light Rainshower 13 100.7 15 100 15
13:00 SSE 9 Light Rainshower 16 100.6 14 100 14
12:00 SSE 15 gust 22 Light Rainshower 16 100.7 13 100 13
11:00 SSE 20 gust 30 Light Rainshower 16 100.7 12 100 12
10:00 SSE 25 gust 41 Light Rainshower 13 100.7 12 100 12
9:00 SSE 23 gust 35 Light Rainshower 13 100.8 12 96 11
8:00 SSE 19 gust 32 Light Rainshower 16 101.0 11 97 10
7:00 SSE 23 gust 35 Light Rainshower 16 101.1 11 95 10
6:00 SSE 21 gust 31 Light Rainshower 16 101.2 12 92 10
5:00 SSE 15 gust 24 N/A N/A 101.3 12 92 11
4:00 SSE 9 N/A N/A 101.4 11 95 10
3:00 SSE 7 N/A N/A 101.5 11 95 10
2:00 SSE 6 N/A N/A 101.5 10 100 10
1:00 SSE 5 N/A N/A 101.6 10 100 10
0:00 SSE 5 N/A N/A 101.6 10 100 10
19 September 2021
23:00 SSE 2 N/A N/A 101.6 10 100 10
22:00 SSE 4 N/A N/A 101.5 11 100 11
21:00 SSE 4 N/A N/A 101.5 11 100 11

Zoom-in to make a selection

Map of Pacific - North Coast marine weather areas Middle Nomad - 46004 South Nomad - 46036 Dixon Entrance Central - 46145 South Moresby - 46147 Nanakwa Shoal - 46181 North Hecate Strait - 46183 North Nomad - 46184 South Hecate Strait - 46185 West Sea Otter - 46204 West Dixon Entrance - 46205 East Dellwood - 46207 West Moresby - 46208 Sartine Island Cape St.James Kindakun Rocks Langara Island Masset Municipal Airport Rose Spit Sandspit Airport Bella Bella Airport Bella Coola Airport Bonilla Island Cathedral Point Cumshewa Island Grey Islet Holland Rock Lucy Islands Lightstation Prince Rupert Airport
Legend:
buoy Buoy
land station Land Station

Pacific - North Coast Area

Another Region

What we are doing

Date modified: